Find Starlink 31627

NORAD ID: 59268 Int'l Des: 2024-050 Owner: SPXS Country: US Constellation: starlink operational
LEOCIRCULAR

現在のビュー

3D地球を読み込み中...

About Starlink 31627

Starlink 31627 (NORAD 59268) is a starlink constellation satellite (v2 mini) launched Mar 19, 2024 by SPXS of US. It operates in LEO, CIRCULAR orbit with a mass of 730.00 kg.

次回通過

Passes for default location (London). Set your location on the main map for personalized predictions.

高度履歴

Loading altitude history...

軌道要素

1 59268U 24050Q 26237.06767761 .00027446 00000-0 82003-3 0 9990
2 59268 53.1590 117.0722 0003158 79.8397 280.2962 15.34414113136359
Epoch: Aug 25, 2026 • Age: 19 hours

現在のステータス

高度 461.9 km
遠地点 / 近地点 N/A
速度 7.64 km/s
衛星直下点 11.09°N, 158.95°W
打ち上げ日 Mar 19, 2024
運用期間 2.4 years
タイプ internet

技術仕様

分類 Payload
質量 730.00 kg
乾燥質量 700.00 kg
総質量 730.00 kg
長さ 0.30 m
直径 4.10 m
スパン 29.00 m
形状 Box + pan
製造者 SPXS
バスタイプ Starlink V2M
フェーズステータス In Orbit
所有者/国 SPXS/US

Most Searched